Location: Chippewa Lake
(41.0698°N, 81.9010°W)
Time: 11:47:02
(UTC+00:00)

Cosmos 2084 - Pass Details

Date: 25 September 2021
Orbit: 529 x 652 km, 62.8° (Epoch: 20 October)

Event Time Altitude Azimuth Distance (km) Brightness Sun altitude
Exits shadow 09:34:53 - 174° (S) 2,122 6.2 -20.1°
Reaches altitude 10° 09:35:57 10° 166° (SSE) 1,768 5.9 -19.9°
Maximum altitude 09:39:01 22° 115° (ESE) 1,204 5.6 -19.3°
Drops below altitude 10° 09:42:08 10° 64° (ENE) 1,802 7.2 -18.8°
Sets 09:44:43 0° 49° (NE) 2,715 8.0 -18.3°
